Year,Month,Day,Hour,Minute,Value (Times are PST for insolation in W/m^2)
2008,07,06,00,00,0.00
2008,07,06,00,01,0.00
2008,07,06,00,02,0.00
2008,07,06,00,03,0.00
2008,07,06,00,04,0.00
2008,07,06,00,05,0.00
2008,07,06,00,06,0.00
2008,07,06,00,07,0.00
2008,07,06,00,08,0.00
2008,07,06,00,09,0.00
2008,07,06,00,10,0.00
2008,07,06,00,11,0.00
2008,07,06,00,12,0.00
2008,07,06,00,13,0.00
2008,07,06,00,14,0.00
2008,07,06,00,15,0.00
2008,07,06,00,16,0.00
2008,07,06,00,17,0.00
2008,07,06,00,18,0.00
2008,07,06,00,19,0.00
2008,07,06,00,20,0.00
2008,07,06,00,21,0.00
2008,07,06,00,22,0.00
2008,07,06,00,23,0.00
2008,07,06,00,24,0.00
2008,07,06,00,25,0.00
2008,07,06,00,26,0.00
2008,07,06,00,27,0.00
2008,07,06,00,28,0.00
2008,07,06,00,29,0.00
2008,07,06,00,30,0.00
2008,07,06,00,31,0.00
2008,07,06,00,32,0.00
2008,07,06,00,33,0.00
2008,07,06,00,34,0.00
2008,07,06,00,35,0.00
2008,07,06,00,36,0.00
2008,07,06,00,37,0.00
2008,07,06,00,38,0.00
2008,07,06,00,39,0.00
2008,07,06,00,40,0.00
2008,07,06,00,41,0.00
2008,07,06,00,42,0.00
2008,07,06,00,43,0.00
2008,07,06,00,44,0.00
2008,07,06,00,45,0.00
2008,07,06,00,46,0.00
2008,07,06,00,47,0.00
2008,07,06,00,48,0.00
2008,07,06,00,49,0.00
2008,07,06,00,50,0.00
2008,07,06,00,51,0.00
2008,07,06,00,52,0.00
2008,07,06,00,53,0.00
2008,07,06,00,54,0.00
2008,07,06,00,55,0.00
2008,07,06,00,56,0.00
2008,07,06,00,57,0.00
2008,07,06,00,58,0.00
2008,07,06,00,59,0.00
2008,07,06,01,00,0.00
2008,07,06,01,01,0.00
2008,07,06,01,02,0.00
2008,07,06,01,03,0.00
2008,07,06,01,04,0.00
2008,07,06,01,05,0.00
2008,07,06,01,06,0.00
2008,07,06,01,07,0.00
2008,07,06,01,08,0.00
2008,07,06,01,09,0.00
2008,07,06,01,10,0.00
2008,07,06,01,11,0.00
2008,07,06,01,12,0.00
2008,07,06,01,13,0.00
2008,07,06,01,14,0.00
2008,07,06,01,15,0.00
2008,07,06,01,16,0.00
2008,07,06,01,17,0.00
2008,07,06,01,18,0.00
2008,07,06,01,19,0.00
2008,07,06,01,20,0.00
2008,07,06,01,21,0.00
2008,07,06,01,22,0.00
2008,07,06,01,23,0.00
2008,07,06,01,24,0.00
2008,07,06,01,25,0.00
2008,07,06,01,26,0.00
2008,07,06,01,27,0.00
2008,07,06,01,28,0.00
2008,07,06,01,29,0.00
2008,07,06,01,30,0.00
2008,07,06,01,31,0.00
2008,07,06,01,32,0.00
2008,07,06,01,33,0.00
2008,07,06,01,34,0.00
2008,07,06,01,35,0.00
2008,07,06,01,36,0.00
2008,07,06,01,37,0.00
2008,07,06,01,38,0.00
2008,07,06,01,39,0.00
2008,07,06,01,40,0.00
2008,07,06,01,41,0.00
2008,07,06,01,42,0.00
2008,07,06,01,43,0.00
2008,07,06,01,44,0.00
2008,07,06,01,45,0.00
2008,07,06,01,46,0.00
2008,07,06,01,47,0.00
2008,07,06,01,48,0.00
2008,07,06,01,49,0.00
2008,07,06,01,50,0.00
2008,07,06,01,51,0.00
2008,07,06,01,52,0.00
2008,07,06,01,53,0.00
2008,07,06,01,54,0.00
2008,07,06,01,55,0.00
2008,07,06,01,56,0.00
2008,07,06,01,57,0.00
2008,07,06,01,58,0.00
2008,07,06,01,59,0.00
2008,07,06,02,00,0.00
2008,07,06,02,01,0.00
2008,07,06,02,02,0.00
2008,07,06,02,03,0.00
2008,07,06,02,04,0.00
2008,07,06,02,05,0.00
2008,07,06,02,06,0.00
2008,07,06,02,07,0.00
2008,07,06,02,08,0.00
2008,07,06,02,09,0.00
2008,07,06,02,10,0.00
2008,07,06,02,11,0.00
2008,07,06,02,12,0.00
2008,07,06,02,13,0.00
2008,07,06,02,14,0.00
2008,07,06,02,15,0.00
2008,07,06,02,16,0.00
2008,07,06,02,17,0.00
2008,07,06,02,18,0.00
2008,07,06,02,19,0.00
2008,07,06,02,20,0.00
2008,07,06,02,21,0.00
2008,07,06,02,22,0.00
2008,07,06,02,23,0.00
2008,07,06,02,24,0.00
2008,07,06,02,25,0.00
2008,07,06,02,26,0.00
2008,07,06,02,27,0.00
2008,07,06,02,28,0.00
2008,07,06,02,29,0.00
2008,07,06,02,30,0.00
2008,07,06,02,31,0.00
2008,07,06,02,32,0.00
2008,07,06,02,33,0.00
2008,07,06,02,34,0.00
2008,07,06,02,35,0.00
2008,07,06,02,36,0.00
2008,07,06,02,37,0.00
2008,07,06,02,38,0.00
2008,07,06,02,39,0.00
2008,07,06,02,40,0.00
2008,07,06,02,41,0.00
2008,07,06,02,42,0.00
2008,07,06,02,43,0.00
2008,07,06,02,44,0.00
2008,07,06,02,45,0.00
2008,07,06,02,46,0.00
2008,07,06,02,47,0.00
2008,07,06,02,48,0.00
2008,07,06,02,49,0.00
2008,07,06,02,50,0.00
2008,07,06,02,51,0.00
2008,07,06,02,52,0.00
2008,07,06,02,53,0.00
2008,07,06,02,54,0.00
2008,07,06,02,55,0.00
2008,07,06,02,56,0.00
2008,07,06,02,57,0.00
2008,07,06,02,58,0.00
2008,07,06,02,59,0.00
2008,07,06,03,00,0.00
2008,07,06,03,01,0.00
2008,07,06,03,02,0.00
2008,07,06,03,03,0.00
2008,07,06,03,04,0.00
2008,07,06,03,05,0.00
2008,07,06,03,06,0.00
2008,07,06,03,07,0.00
2008,07,06,03,08,0.00
2008,07,06,03,09,0.00
2008,07,06,03,10,0.00
2008,07,06,03,11,0.00
2008,07,06,03,12,0.00
2008,07,06,03,13,0.00
2008,07,06,03,14,0.00
2008,07,06,03,15,0.00
2008,07,06,03,16,0.00
2008,07,06,03,17,0.00
2008,07,06,03,18,0.00
2008,07,06,03,19,0.00
2008,07,06,03,20,0.00
2008,07,06,03,21,0.00
2008,07,06,03,22,0.00
2008,07,06,03,23,0.00
2008,07,06,03,24,0.00
2008,07,06,03,25,0.00
2008,07,06,03,26,0.00
2008,07,06,03,27,0.00
2008,07,06,03,28,0.00
2008,07,06,03,29,0.00
2008,07,06,03,30,0.00
2008,07,06,03,31,0.00
2008,07,06,03,32,0.00
2008,07,06,03,33,0.00
2008,07,06,03,34,0.00
2008,07,06,03,35,0.00
2008,07,06,03,36,0.00
2008,07,06,03,37,0.00
2008,07,06,03,38,0.00
2008,07,06,03,39,0.00
2008,07,06,03,40,0.00
2008,07,06,03,41,0.00
2008,07,06,03,42,0.00
2008,07,06,03,43,0.00
2008,07,06,03,44,0.00
2008,07,06,03,45,0.00
2008,07,06,03,46,0.00
2008,07,06,03,47,0.00
2008,07,06,03,48,0.00
2008,07,06,03,49,0.00
2008,07,06,03,50,0.00
2008,07,06,03,51,0.00
2008,07,06,03,52,0.00
2008,07,06,03,53,0.00
2008,07,06,03,54,0.00
2008,07,06,03,55,0.00
2008,07,06,03,56,0.00
2008,07,06,03,57,0.00
2008,07,06,03,58,0.00
2008,07,06,03,59,0.00
2008,07,06,04,00,0.00
2008,07,06,04,01,0.00
2008,07,06,04,02,0.00
2008,07,06,04,03,0.00
2008,07,06,04,04,0.00
2008,07,06,04,05,0.00
2008,07,06,04,06,0.00
2008,07,06,04,07,0.00
2008,07,06,04,08,0.00
2008,07,06,04,09,0.00
2008,07,06,04,10,0.00
2008,07,06,04,11,0.00
2008,07,06,04,12,0.00
2008,07,06,04,13,0.00
2008,07,06,04,14,0.00
2008,07,06,04,15,0.00
2008,07,06,04,16,0.00
2008,07,06,04,17,0.00
2008,07,06,04,18,0.00
2008,07,06,04,19,0.00
2008,07,06,04,20,0.00
2008,07,06,04,21,0.00
2008,07,06,04,22,0.00
2008,07,06,04,23,0.00
2008,07,06,04,24,0.00
2008,07,06,04,25,0.00
2008,07,06,04,26,0.00
2008,07,06,04,27,0.00
2008,07,06,04,28,0.00
2008,07,06,04,29,0.00
2008,07,06,04,30,0.00
2008,07,06,04,31,0.00
2008,07,06,04,32,0.00
2008,07,06,04,33,0.00
2008,07,06,04,34,0.00
2008,07,06,04,35,0.00
2008,07,06,04,36,0.00
2008,07,06,04,37,0.00
2008,07,06,04,38,0.00
2008,07,06,04,39,0.00
2008,07,06,04,40,0.00
2008,07,06,04,41,0.00
2008,07,06,04,42,0.00
2008,07,06,04,43,0.00
2008,07,06,04,44,0.00
2008,07,06,04,45,0.00
2008,07,06,04,46,0.00
2008,07,06,04,47,0.00
2008,07,06,04,48,0.00
2008,07,06,04,49,0.00
2008,07,06,04,50,0.00
2008,07,06,04,51,0.00
2008,07,06,04,52,0.00
2008,07,06,04,53,0.00
2008,07,06,04,54,0.00
2008,07,06,04,55,0.00
2008,07,06,04,56,0.00
2008,07,06,04,57,0.00
2008,07,06,04,58,0.00
2008,07,06,04,59,0.00
2008,07,06,05,00,0.00
2008,07,06,05,01,0.00
2008,07,06,05,02,0.00
2008,07,06,05,03,0.00
2008,07,06,05,04,0.00
2008,07,06,05,05,0.00
2008,07,06,05,06,0.00
2008,07,06,05,07,0.00
2008,07,06,05,08,0.00
2008,07,06,05,09,0.00
2008,07,06,05,10,0.00
2008,07,06,05,11,0.00
2008,07,06,05,12,0.00
2008,07,06,05,13,0.00
2008,07,06,05,14,0.00
2008,07,06,05,15,0.00
2008,07,06,05,16,0.00
2008,07,06,05,17,0.00
2008,07,06,05,18,0.00
2008,07,06,05,19,0.00
2008,07,06,05,20,0.00
2008,07,06,05,21,0.00
2008,07,06,05,22,0.00
2008,07,06,05,23,0.00
2008,07,06,05,24,0.00
2008,07,06,05,25,0.00
2008,07,06,05,26,0.00
2008,07,06,05,27,0.00
2008,07,06,05,28,0.00
2008,07,06,05,29,0.00
2008,07,06,05,30,0.00
2008,07,06,05,31,0.00
2008,07,06,05,32,0.00
2008,07,06,05,33,0.00
2008,07,06,05,34,0.00
2008,07,06,05,35,0.00
2008,07,06,05,36,4.10
2008,07,06,05,37,5.00
2008,07,06,05,38,5.00
2008,07,06,05,39,5.00
2008,07,06,05,40,5.00
2008,07,06,05,41,5.00
2008,07,06,05,42,5.00
2008,07,06,05,43,7.00
2008,07,06,05,44,7.00
2008,07,06,05,45,7.00
2008,07,06,05,46,7.00
2008,07,06,05,47,8.40
2008,07,06,05,48,9.00
2008,07,06,05,49,9.30
2008,07,06,05,50,11.00
2008,07,06,05,51,11.00
2008,07,06,05,52,11.00
2008,07,06,05,53,11.00
2008,07,06,05,54,11.90
2008,07,06,05,55,12.00
2008,07,06,05,56,12.00
2008,07,06,05,57,12.00
2008,07,06,05,58,13.40
2008,07,06,05,59,14.00
2008,07,06,06,00,14.00
2008,07,06,06,01,14.30
2008,07,06,06,02,16.00
2008,07,06,06,03,16.00
2008,07,06,06,04,16.00
2008,07,06,06,05,17.50
2008,07,06,06,06,18.00
2008,07,06,06,07,19.00
2008,07,06,06,08,19.00
2008,07,06,06,09,20.00
2008,07,06,06,10,21.00
2008,07,06,06,11,22.50
2008,07,06,06,12,23.20
2008,07,06,06,13,25.00
2008,07,06,06,14,25.00
2008,07,06,06,15,25.50
2008,07,06,06,16,26.00
2008,07,06,06,17,26.00
2008,07,06,06,18,27.90
2008,07,06,06,19,28.00
2008,07,06,06,20,28.00
2008,07,06,06,21,29.10
2008,07,06,06,22,30.00
2008,07,06,06,23,30.00
2008,07,06,06,24,31.90
2008,07,06,06,25,32.30
2008,07,06,06,26,33.00
2008,07,06,06,27,33.00
2008,07,06,06,28,33.00
2008,07,06,06,29,33.00
2008,07,06,06,30,35.00
2008,07,06,06,31,35.00
2008,07,06,06,32,35.00
2008,07,06,06,33,35.00
2008,07,06,06,34,36.40
2008,07,06,06,35,37.00
2008,07,06,06,36,37.40
2008,07,06,06,37,39.00
2008,07,06,06,38,39.50
2008,07,06,06,39,40.00
2008,07,06,06,40,40.00
2008,07,06,06,41,42.00
2008,07,06,06,42,42.40
2008,07,06,06,43,44.00
2008,07,06,06,44,45.00
2008,07,06,06,45,46.00
2008,07,06,06,46,46.80
2008,07,06,06,47,48.90
2008,07,06,06,48,51.00
2008,07,06,06,49,52.10
2008,07,06,06,50,55.00
2008,07,06,06,51,57.30
2008,07,06,06,52,59.50
2008,07,06,06,53,62.10
2008,07,06,06,54,63.50
2008,07,06,06,55,65.80
2008,07,06,06,56,67.00
2008,07,06,06,57,67.00
2008,07,06,06,58,67.00
2008,07,06,06,59,67.30
2008,07,06,07,00,70.50
2008,07,06,07,01,72.00
2008,07,06,07,02,73.00
2008,07,06,07,03,75.30
2008,07,06,07,04,76.00
2008,07,06,07,05,77.20
2008,07,06,07,06,79.00
2008,07,06,07,07,79.90
2008,07,06,07,08,82.20
2008,07,06,07,09,83.70
2008,07,06,07,10,85.60
2008,07,06,07,11,88.30
2008,07,06,07,12,90.00
2008,07,06,07,13,90.50
2008,07,06,07,14,92.20
2008,07,06,07,15,94.40
2008,07,06,07,16,95.00
2008,07,06,07,17,95.00
2008,07,06,07,18,95.00
2008,07,06,07,19,95.00
2008,07,06,07,20,95.00
2008,07,06,07,21,95.00
2008,07,06,07,22,95.00
2008,07,06,07,23,95.40
2008,07,06,07,24,97.00
2008,07,06,07,25,97.00
2008,07,06,07,26,97.70
2008,07,06,07,27,98.00
2008,07,06,07,28,98.00
2008,07,06,07,29,97.00
2008,07,06,07,30,97.00
2008,07,06,07,31,97.00
2008,07,06,07,32,97.00
2008,07,06,07,33,97.80
2008,07,06,07,34,97.10
2008,07,06,07,35,95.60
2008,07,06,07,36,90.60
2008,07,06,07,37,90.00
2008,07,06,07,38,90.00
2008,07,06,07,39,90.80
2008,07,06,07,40,93.20
2008,07,06,07,41,95.50
2008,07,06,07,42,97.00
2008,07,06,07,43,97.00
2008,07,06,07,44,97.00
2008,07,06,07,45,97.90
2008,07,06,07,46,100.20
2008,07,06,07,47,102.50
2008,07,06,07,48,104.40
2008,07,06,07,49,106.30
2008,07,06,07,50,108.40
2008,07,06,07,51,110.90
2008,07,06,07,52,113.00
2008,07,06,07,53,113.80
2008,07,06,07,54,116.90
2008,07,06,07,55,119.30
2008,07,06,07,56,120.00
2008,07,06,07,57,120.90
2008,07,06,07,58,123.00
2008,07,06,07,59,123.00
2008,07,06,08,00,123.90
2008,07,06,08,01,125.00
2008,07,06,08,02,126.50
2008,07,06,08,03,128.00
2008,07,06,08,04,130.40
2008,07,06,08,05,132.90
2008,07,06,08,06,135.90
2008,07,06,08,07,139.40
2008,07,06,08,08,143.20
2008,07,06,08,09,146.00
2008,07,06,08,10,149.80
2008,07,06,08,11,154.10
2008,07,06,08,12,157.00
2008,07,06,08,13,160.70
2008,07,06,08,14,164.30
2008,07,06,08,15,168.90
2008,07,06,08,16,173.40
2008,07,06,08,17,179.10
2008,07,06,08,18,183.10
2008,07,06,08,19,185.80
2008,07,06,08,20,189.60
2008,07,06,08,21,193.20
2008,07,06,08,22,197.50
2008,07,06,08,23,200.30
2008,07,06,08,24,203.00
2008,07,06,08,25,206.00
2008,07,06,08,26,207.00
2008,07,06,08,27,212.90
2008,07,06,08,28,214.60
2008,07,06,08,29,216.90
2008,07,06,08,30,219.90
2008,07,06,08,31,223.90
2008,07,06,08,32,228.60
2008,07,06,08,33,232.60
2008,07,06,08,34,237.00
2008,07,06,08,35,240.00
2008,07,06,08,36,242.20
2008,07,06,08,37,243.00
2008,07,06,08,38,243.90
2008,07,06,08,39,244.30
2008,07,06,08,40,246.00
2008,07,06,08,41,246.90
2008,07,06,08,42,249.80
2008,07,06,08,43,252.50
2008,07,06,08,44,254.90
2008,07,06,08,45,253.00
2008,07,06,08,46,251.30
2008,07,06,08,47,246.00
2008,07,06,08,48,243.30
2008,07,06,08,49,243.00
2008,07,06,08,50,244.10
2008,07,06,08,51,246.40
2008,07,06,08,52,248.80
2008,07,06,08,53,250.50
2008,07,06,08,54,251.00
2008,07,06,08,55,251.00
2008,07,06,08,56,250.10
2008,07,06,08,57,250.00
2008,07,06,08,58,250.00
2008,07,06,08,59,250.00
2008,07,06,09,00,251.90
2008,07,06,09,01,256.20
2008,07,06,09,02,260.00
2008,07,06,09,03,262.80
2008,07,06,09,04,266.70
2008,07,06,09,05,269.00
2008,07,06,09,06,276.60
2008,07,06,09,07,284.40
2008,07,06,09,08,290.70
2008,07,06,09,09,298.40
2008,07,06,09,10,304.50
2008,07,06,09,11,308.60
2008,07,06,09,12,310.50
2008,07,06,09,13,312.70
2008,07,06,09,14,318.60
2008,07,06,09,15,322.30
2008,07,06,09,16,324.70
2008,07,06,09,17,327.00
2008,07,06,09,18,331.00
2008,07,06,09,19,344.10
2008,07,06,09,20,348.40
2008,07,06,09,21,367.80
2008,07,06,09,22,428.00
2008,07,06,09,23,421.00
2008,07,06,09,24,407.30
2008,07,06,09,25,406.60
2008,07,06,09,26,405.50
2008,07,06,09,27,400.00
2008,07,06,09,28,390.90
2008,07,06,09,29,387.40
2008,07,06,09,30,397.10
2008,07,06,09,31,396.30
2008,07,06,09,32,396.00
2008,07,06,09,33,393.70
2008,07,06,09,34,388.40
2008,07,06,09,35,390.40
2008,07,06,09,36,398.90
2008,07,06,09,37,408.80
2008,07,06,09,38,431.50
2008,07,06,09,39,445.60
2008,07,06,09,40,425.70
2008,07,06,09,41,416.60
2008,07,06,09,42,428.00
2008,07,06,09,43,425.00
2008,07,06,09,44,437.00
2008,07,06,09,45,471.00
2008,07,06,09,46,471.00
2008,07,06,09,47,469.50
2008,07,06,09,48,527.90
2008,07,06,09,49,519.70
2008,07,06,09,50,497.70
2008,07,06,09,51,535.90
2008,07,06,09,52,530.20
2008,07,06,09,53,499.00
2008,07,06,09,54,469.80
2008,07,06,09,55,540.20
2008,07,06,09,56,595.80
2008,07,06,09,57,637.00
2008,07,06,09,58,601.00
2008,07,06,09,59,695.90
2008,07,06,10,00,724.10
2008,07,06,10,01,713.50
2008,07,06,10,02,703.00
2008,07,06,10,03,694.00
2008,07,06,10,04,696.70
2008,07,06,10,05,698.00
2008,07,06,10,06,694.20
2008,07,06,10,07,688.00
2008,07,06,10,08,683.50
2008,07,06,10,09,702.90
2008,07,06,10,10,714.50
2008,07,06,10,11,670.00
2008,07,06,10,12,661.90
2008,07,06,10,13,742.00
2008,07,06,10,14,734.60
2008,07,06,10,15,727.20
2008,07,06,10,16,751.70
2008,07,06,10,17,756.70
2008,07,06,10,18,758.70
2008,07,06,10,19,755.00
2008,07,06,10,20,729.90
2008,07,06,10,21,729.80
2008,07,06,10,22,727.50
2008,07,06,10,23,740.30
2008,07,06,10,24,749.20
2008,07,06,10,25,750.50
2008,07,06,10,26,747.20
2008,07,06,10,27,742.10
2008,07,06,10,28,736.50
2008,07,06,10,29,733.40
2008,07,06,10,30,733.20
2008,07,06,10,31,735.50
2008,07,06,10,32,737.40
2008,07,06,10,33,737.50
2008,07,06,10,34,737.70
2008,07,06,10,35,741.80
2008,07,06,10,36,752.70
2008,07,06,10,37,763.00
2008,07,06,10,38,764.50
2008,07,06,10,39,765.30
2008,07,06,10,40,763.60
2008,07,06,10,41,765.60
2008,07,06,10,42,768.70
2008,07,06,10,43,773.00
2008,07,06,10,44,777.40
2008,07,06,10,45,780.00
2008,07,06,10,46,779.30
2008,07,06,10,47,778.70
2008,07,06,10,48,771.70
2008,07,06,10,49,770.00
2008,07,06,10,50,771.00
2008,07,06,10,51,770.80
2008,07,06,10,52,771.50
2008,07,06,10,53,772.20
2008,07,06,10,54,777.70
2008,07,06,10,55,780.00
2008,07,06,10,56,780.00
2008,07,06,10,57,782.50
2008,07,06,10,58,785.60
2008,07,06,10,59,791.00
2008,07,06,11,00,792.60
2008,07,06,11,01,798.00
2008,07,06,11,02,798.00
2008,07,06,11,03,799.30
2008,07,06,11,04,802.50
2008,07,06,11,05,805.30
2008,07,06,11,06,810.50
2008,07,06,11,07,812.00
2008,07,06,11,08,810.40
2008,07,06,11,09,811.20
2008,07,06,11,10,813.60
2008,07,06,11,11,819.00
2008,07,06,11,12,821.50
2008,07,06,11,13,823.00
2008,07,06,11,14,829.80
2008,07,06,11,15,836.50
2008,07,06,11,16,841.10
2008,07,06,11,17,849.00
2008,07,06,11,18,849.60
2008,07,06,11,19,851.90
2008,07,06,11,20,853.00
2008,07,06,11,21,855.10
2008,07,06,11,22,863.80
2008,07,06,11,23,872.30
2008,07,06,11,24,886.70
2008,07,06,11,25,868.70
2008,07,06,11,26,856.70
2008,07,06,11,27,883.00
2008,07,06,11,28,898.90
2008,07,06,11,29,925.00
2008,07,06,11,30,925.00
2008,07,06,11,31,585.00
2008,07,06,11,32,287.90
2008,07,06,11,33,294.90
2008,07,06,11,34,288.50
2008,07,06,11,35,285.40
2008,07,06,11,36,287.00
2008,07,06,11,37,290.50
2008,07,06,11,38,292.80
2008,07,06,11,39,294.50
2008,07,06,11,40,294.10
2008,07,06,11,41,294.60
2008,07,06,11,42,299.50
2008,07,06,11,43,306.80
2008,07,06,11,44,309.00
2008,07,06,11,45,308.20
2008,07,06,11,46,308.00
2008,07,06,11,47,310.10
2008,07,06,11,48,319.90
2008,07,06,11,49,327.20
2008,07,06,11,50,343.20
2008,07,06,11,51,362.90
2008,07,06,11,52,375.60
2008,07,06,11,53,377.40
2008,07,06,11,54,383.40
2008,07,06,11,55,398.40
2008,07,06,11,56,428.00
2008,07,06,11,57,452.40
2008,07,06,11,58,455.00
2008,07,06,11,59,455.00
2008,07,06,12,00,413.10
2008,07,06,12,01,352.30
2008,07,06,12,02,340.80
2008,07,06,12,03,336.40
2008,07,06,12,04,342.60
2008,07,06,12,05,356.60
2008,07,06,12,06,377.60
2008,07,06,12,07,414.00
2008,07,06,12,08,434.00
2008,07,06,12,09,895.40
2008,07,06,12,10,1026.70
2008,07,06,12,11,1023.30
2008,07,06,12,12,1015.00
2008,07,06,12,13,1006.30
2008,07,06,12,14,997.60
2008,07,06,12,15,975.80
2008,07,06,12,16,952.40
2008,07,06,12,17,944.90
2008,07,06,12,18,937.50
2008,07,06,12,19,933.00
2008,07,06,12,20,933.00
2008,07,06,12,21,933.00
2008,07,06,12,22,880.70
2008,07,06,12,23,703.00
2008,07,06,12,24,493.30
2008,07,06,12,25,301.00
2008,07,06,12,26,866.50
2008,07,06,12,27,935.50
2008,07,06,12,28,944.70
2008,07,06,12,29,942.10
2008,07,06,12,30,937.00
2008,07,06,12,31,944.70
2008,07,06,12,32,944.00
2008,07,06,12,33,945.20
2008,07,06,12,34,950.10
2008,07,06,12,35,936.60
2008,07,06,12,36,919.70
2008,07,06,12,37,912.00
2008,07,06,12,38,887.20
2008,07,06,12,39,882.30
2008,07,06,12,40,884.50
2008,07,06,12,41,886.00
2008,07,06,12,42,890.10
2008,07,06,12,43,900.30
2008,07,06,12,44,903.70
2008,07,06,12,45,903.30
2008,07,06,12,46,905.30
2008,07,06,12,47,916.90
2008,07,06,12,48,932.30
2008,07,06,12,49,944.30
2008,07,06,12,50,932.70
2008,07,06,12,51,876.50
2008,07,06,12,52,928.60
2008,07,06,12,53,924.00
2008,07,06,12,54,913.80
2008,07,06,12,55,898.40
2008,07,06,12,56,891.70
2008,07,06,12,57,896.90
2008,07,06,12,58,900.80
2008,07,06,12,59,909.30
2008,07,06,13,00,891.00
2008,07,06,13,01,881.00
2008,07,06,13,02,375.90
2008,07,06,13,03,392.00
2008,07,06,13,04,587.80
2008,07,06,13,05,915.20
2008,07,06,13,06,922.80
2008,07,06,13,07,936.70
2008,07,06,13,08,936.00
2008,07,06,13,09,926.00
2008,07,06,13,10,928.40
2008,07,06,13,11,935.80
2008,07,06,13,12,937.70
2008,07,06,13,13,938.70
2008,07,06,13,14,940.00
2008,07,06,13,15,898.00
2008,07,06,13,16,898.00
2008,07,06,13,17,919.10
2008,07,06,13,18,924.80
2008,07,06,13,19,927.70
2008,07,06,13,20,938.00
2008,07,06,13,21,951.30
2008,07,06,13,22,938.60
2008,07,06,13,23,941.40
2008,07,06,13,24,933.70
2008,07,06,13,25,969.00
2008,07,06,13,26,977.00
2008,07,06,13,27,977.00
2008,07,06,13,28,961.10
2008,07,06,13,29,942.00
2008,07,06,13,30,935.20
2008,07,06,13,31,926.20
2008,07,06,13,32,931.40
2008,07,06,13,33,938.60
2008,07,06,13,34,944.00
2008,07,06,13,35,954.70
2008,07,06,13,36,947.80
2008,07,06,13,37,950.90
2008,07,06,13,38,963.00
2008,07,06,13,39,963.00
2008,07,06,13,40,952.50
2008,07,06,13,41,942.00
2008,07,06,13,42,942.00
2008,07,06,13,43,940.20
2008,07,06,13,44,922.20
2008,07,06,13,45,928.20
2008,07,06,13,46,927.80
2008,07,06,13,47,925.70
2008,07,06,13,48,929.60
2008,07,06,13,49,936.90
2008,07,06,13,50,940.70
2008,07,06,13,51,945.30
2008,07,06,13,52,933.00
2008,07,06,13,53,913.70
2008,07,06,13,54,911.70
2008,07,06,13,55,924.70
2008,07,06,13,56,919.60
2008,07,06,13,57,915.20
2008,07,06,13,58,919.10
2008,07,06,13,59,931.30
2008,07,06,14,00,954.10
2008,07,06,14,01,956.00
2008,07,06,14,02,760.90
2008,07,06,14,03,296.90
2008,07,06,14,04,309.00
2008,07,06,14,05,309.00
2008,07,06,14,06,309.00
2008,07,06,14,07,454.00
2008,07,06,14,08,554.70
2008,07,06,14,09,756.00
2008,07,06,14,10,756.00
2008,07,06,14,11,390.50
2008,07,06,14,12,268.90
2008,07,06,14,13,265.10
2008,07,06,14,14,269.60
2008,07,06,14,15,273.40
2008,07,06,14,16,291.50
2008,07,06,14,17,340.90
2008,07,06,14,18,352.00
2008,07,06,14,19,342.70
2008,07,06,14,20,301.00
2008,07,06,14,21,578.90
2008,07,06,14,22,877.00
2008,07,06,14,23,874.00
2008,07,06,14,24,879.80
2008,07,06,14,25,891.40
2008,07,06,14,26,882.20
2008,07,06,14,27,875.00
2008,07,06,14,28,875.00
2008,07,06,14,29,875.00
2008,07,06,14,30,875.00
2008,07,06,14,31,762.50
2008,07,06,14,32,425.00
2008,07,06,14,33,425.00
2008,07,06,14,34,364.30
2008,07,06,14,35,364.30
2008,07,06,14,36,373.80
2008,07,06,14,37,374.00
2008,07,06,14,38,408.00
2008,07,06,14,39,457.00
2008,07,06,14,40,524.30
2008,07,06,14,41,476.80
2008,07,06,14,42,473.00
2008,07,06,14,43,473.00
2008,07,06,14,44,473.00
2008,07,06,14,45,785.60
2008,07,06,14,46,1002.00
2008,07,06,14,47,1002.00
2008,07,06,14,48,1002.00
2008,07,06,14,49,1002.00
2008,07,06,14,50,958.30
2008,07,06,14,51,912.80
2008,07,06,14,52,921.00
2008,07,06,14,53,921.00
2008,07,06,14,54,367.50
2008,07,06,14,55,388.30
2008,07,06,14,56,342.00
2008,07,06,14,57,333.50
2008,07,06,14,58,339.80
2008,07,06,14,59,341.00
2008,07,06,15,00,341.00
2008,07,06,15,01,567.30
2008,07,06,15,02,937.40
2008,07,06,15,03,915.50
2008,07,06,15,04,904.00
2008,07,06,15,05,848.60
2008,07,06,15,06,294.80
2008,07,06,15,07,296.50
2008,07,06,15,08,301.00
2008,07,06,15,09,301.00
2008,07,06,15,10,719.80
2008,07,06,15,11,838.90
2008,07,06,15,12,832.50
2008,07,06,15,13,830.50
2008,07,06,15,14,828.90
2008,07,06,15,15,824.60
2008,07,06,15,16,819.40
2008,07,06,15,17,814.20
2008,07,06,15,18,814.60
2008,07,06,15,19,819.30
2008,07,06,15,20,822.20
2008,07,06,15,21,813.50
2008,07,06,15,22,805.20
2008,07,06,15,23,795.10
2008,07,06,15,24,788.10
2008,07,06,15,25,786.00
2008,07,06,15,26,787.70
2008,07,06,15,27,791.80
2008,07,06,15,28,793.00
2008,07,06,15,29,788.50
2008,07,06,15,30,783.70
2008,07,06,15,31,778.10
2008,07,06,15,32,778.20
2008,07,06,15,33,779.70
2008,07,06,15,34,779.00
2008,07,06,15,35,777.70
2008,07,06,15,36,772.40
2008,07,06,15,37,773.00
2008,07,06,15,38,773.00
2008,07,06,15,39,778.40
2008,07,06,15,40,770.70
2008,07,06,15,41,766.00
2008,07,06,15,42,765.60
2008,07,06,15,43,765.50
2008,07,06,15,44,768.50
2008,07,06,15,45,777.70
2008,07,06,15,46,734.20
2008,07,06,15,47,238.50
2008,07,06,15,48,229.60
2008,07,06,15,49,232.70
2008,07,06,15,50,243.80
2008,07,06,15,51,248.00
2008,07,06,15,52,315.50
2008,07,06,15,53,256.40
2008,07,06,15,54,237.20
2008,07,06,15,55,243.00
2008,07,06,15,56,615.80
2008,07,06,15,57,749.00
2008,07,06,15,58,287.40
2008,07,06,15,59,339.00
2008,07,06,16,00,513.30
2008,07,06,16,01,729.20
2008,07,06,16,02,724.90
2008,07,06,16,03,711.50
2008,07,06,16,04,733.00
2008,07,06,16,05,730.40
2008,07,06,16,06,719.50
2008,07,06,16,07,710.50
2008,07,06,16,08,699.80
2008,07,06,16,09,699.70
2008,07,06,16,10,697.60
2008,07,06,16,11,695.40
2008,07,06,16,12,691.90
2008,07,06,16,13,690.10
2008,07,06,16,14,688.10
2008,07,06,16,15,686.70
2008,07,06,16,16,679.10
2008,07,06,16,17,675.70
2008,07,06,16,18,678.00
2008,07,06,16,19,679.60
2008,07,06,16,20,680.00
2008,07,06,16,21,679.90
2008,07,06,16,22,677.00
2008,07,06,16,23,675.70
2008,07,06,16,24,670.50
2008,07,06,16,25,666.60
2008,07,06,16,26,663.70
2008,07,06,16,27,659.40
2008,07,06,16,28,658.40
2008,07,06,16,29,655.20
2008,07,06,16,30,654.00
2008,07,06,16,31,654.00
2008,07,06,16,32,650.80
2008,07,06,16,33,649.70
2008,07,06,16,34,647.00
2008,07,06,16,35,644.00
2008,07,06,16,36,640.00
2008,07,06,16,37,634.00
2008,07,06,16,38,631.00
2008,07,06,16,39,629.10
2008,07,06,16,40,628.20
2008,07,06,16,41,624.30
2008,07,06,16,42,621.40
2008,07,06,16,43,619.50
2008,07,06,16,44,619.00
2008,07,06,16,45,618.40
2008,07,06,16,46,615.50
2008,07,06,16,47,616.10
2008,07,06,16,48,616.20
2008,07,06,16,49,613.80
2008,07,06,16,50,612.10
2008,07,06,16,51,612.20
2008,07,06,16,52,612.00
2008,07,06,16,53,607.90
2008,07,06,16,54,605.00
2008,07,06,16,55,599.80
2008,07,06,16,56,594.40
2008,07,06,16,57,590.60
2008,07,06,16,58,589.00
2008,07,06,16,59,589.00
2008,07,06,17,00,589.00
2008,07,06,17,01,585.60
2008,07,06,17,02,582.30
2008,07,06,17,03,581.20
2008,07,06,17,04,578.00
2008,07,06,17,05,577.50
2008,07,06,17,06,575.80
2008,07,06,17,07,575.00
2008,07,06,17,08,571.30
2008,07,06,17,09,570.70